Погода Владимир-Волынский

Погода Владимир-Волынский : погода сейчас, прогноз погоды и архив. Всё, что Вы хотите узнать о погоде Владимир-Волынский!

Хотите узнать прогноз погоды Владимир-Волынский? Тогда Вам сюда: Погода Владимир-Волынский

Поиск расширенной информации на нашем сайте:

Другие новости

Новости СМИ2

Главная страница сайта

Новости сайта

03.07.2017

Напоминаем, что на нашем специализированном сайте Метеоцентр.Азия вы можете получить высокодетализированные автоматические прогнозы погоды по пунктам России, СНГ и мира в авиационном формате (включающие направление и скорость ветра, видимость, явления погоды, количество и форму облачности, нижнюю и верхнюю границу облачности).

Рекомендуем: Световое шоу flagro светодиодные крылья.

Погода Владимир-Волынский - сегодня

Время (UTC), дата Ветер
(°,м/с) 
Видим.   Явления Облачность Т
(°С)
Тd
(°С)
f(%) Тe
(°С)
Pmin
(гПа)
dP
(гПа)
Po
(мм)
O2
(г/м3)
Тmin Tmax R s Состояние
почвы
09 08.12.17 200 (Ю) 20000 м    ясно 
+4.4 +0.5 76 +5  1010.5  -0.1  740  293           
12 08.12.17 230 (ЮЗ) 20000 м    8/0 средняя 
[Ac und]
+7.7 +1.4 64 +6  1008.6  -1.5  739  289           
15 08.12.17 210 (ЮЗ) 10 км    8/8 600 м 
[Sc]
+5.6 +0.8 71 +6  1008.3  -0.5  739  291           
18 08.12.17 230 (ЮЗ) 10 км    10/10 600 м 
[Sc]
+4.8 +1.5 79 +6  1008.6  0.2  739  292    +8.1       
21 08.12.17 220 (ЮЗ) 10 км    10/10 600 м 
[Sc]
+3 +0.9 86 +4  1008.6  -0.1  739  294           
00 09.12.17 210 (ЮЗ) 4000 м  слаб. ливневой дождь  10/10 600 м кучево-дожд. 
[Cb cap]
+2.6 +1.3 91 +3  1008.6  -0.1  739  295      0.0     
03 09.12.17 200 (Ю) 4000 м  слаб. ливневой дождь  10/10 600 м кучево-дожд. 
[Cb cap]
+2.4 +1.4 93 +3  1007.5  -1.1  738  294           
06 09.12.17 340 (С) 10 км  в посл. час ливневой дождь  10/10 600 м кучево-дожд. 
[Cb cap]
+2.6 +1.3 91 +2  1006.8  -0.6  737  294  +2.3       
09 09.12.17 020 (С) 4000 м  слаб. ливневой дождь со снегом  10/10 600 м кучево-дожд. 
[Cb cap]
+0.8 -0.3 92 -1  1007.1  0.1  737  296           
12 09.12.17 350 (С) 4000 м  слаб. снег{ливн. осадки}  10/10 300 м 
[Frnb|Ns]
+0.6 -0.2 94 1006.3  -0.8  737  296         
15 09.12.17 350 (С) 4000 м  слаб. снег  10/10 300 м 
[Frnb|Ns]
+0.4 -0.4 94 +1  1006.4  0.1  737  296           
18 09.12.17 300 (СЗ) 4000 м  слаб. снег  10/10 300 м 
[Frnb|Ns]
-0.1 -1 94 +1  1006.2  -0.2  737  297    +2.7     
21 09.12.17 тихо ()   10 км  в посл. час снег  10/10 300 м 
[Frnb|Ns]
+0 -1.1 92 1006.8  0.5  737  297           
00 10.12.17 тихо ()   10 км  {снег}  10/0 средняя 
[As trans]
-0.3 -1.8 90 -0  1006.9  0.1  737  297      0.6     
03 10.12.17 тихо ()   10 км    6/0 средняя 
[Ac und]
-1 -2.6 89 -1  1007.2  0.2  737  298           
06 10.12.17 тихо ()   10 км    10/10 600 м 
[Sc]
-0.5 -2 90 -1  1007.5  0.4  738  298  -1.3    0.6  равномерный
сухой снег
100% 
09 10.12.17 270 (З) 10 км    10/10 600 м 
[Sc]
+0.1 -1.3 90 -2  1007.9  0.4  738  297           
12 10.12.17 260 (З) 10 км    8/8 600 м 
[Sc]
+0.4 -1.3 88 +1  1007.2  -0.6  737  297           
15 10.12.17 170 (Ю) 10 км    ясно 
-0.7 -3.1 84 -2  1006.3  -1  737  298           
18 10.12.17 180 (Ю) 10 км    ясно 
-2.9 -4.2 91 -4  1005  -1.5  736  300    +0.5       
21 10.12.17 170 (Ю) 10 км    10/10 600 м 
[Sc]
-2.5 -5.4 80 -5  1002  -2.9  733  299           
00 11.12.17 170 (Ю) 10 км    10/10 600 м 
[Sc]
-0.9 -5.8 69 -4  1001  -0.8  733  297           
03 11.12.17 190 (Ю) 10 км  {ливн. осадки}  10/10 600 м кучево-дожд. 
[Cb cap]
-0.1 -3.7 77 -3  1000.2  -0.7  732  296           
06 11.12.17 160 (Ю) 20000 м  {ливн. осадки}  10/10 600 м 
[Sc]
+0.6 -2.6 79 +1  1000.7  0.5  733  295  -3.3    0.3     
09 11.12.17 170 (Ю) 20000 м    9/9 600 м 
[Sc]
+1.8 -2.2 75 +1  1001.6  733  294           
Время (UTC), дата Ветер
(°,м/с) 
Видим.   Явления Облачность Т
(°С)
Тd
(°С)
f(%) Тe
(°С)
Pmin
(гПа)
dP
(гПа)
Po
(мм)
O2
(г/м3)
Тmin Tmax R s Состояние
почвы

Для получения пояснительной информации подведите курсор к названию столбца.

ПОГОДА Владимир-Волынский - архив

Всё, что Вы хотите узнать о погоде Владимир-Волынский - удобно и подробно!

Выберите нужную дату (начиная с 1 января 2015* года) и нажмите кнопку "Найти".
Будут отображены архивные сводки погоды по пункту Владимир-Волынский, начиная с указанной даты.


Отображать данные в формате CSV (для использования в таблицах Excel)


Внимание! Наш архив погоды предназначен исключительно для личного некоммерческого использования в познавательных целях. Если Вам необходимы официальные справки о состоянии погоды (для производственных, юридических, коммерческих и т.п. целей), обращайтесь в органы Росгидромета.

*Примечание: данная дата относится к архиву по метеостанциям СССР (Россия, СНГ, Балтия).
Архив по метеостанциям Зарубежной Европы и Азии (кроме Китая) хранится 10 дней, по другим регионам земного шара (Китай, Африка, Америка, Австралия, Океания) - 1 день.

Владимир-Волынский - район местоположения метеостанции


Название, широта, долгота, высота метеостанции:
Владимир-Волынский 50.8°ш. 24.3°д. 194 м над ур. моря [Украина]

Дополнительная информация

В oтличие oт бoльшинства пoгoдных сайтoв мы публикуем пoдрoбную метеoинфoрмацию в детальнoм прoфессиoнальнoм фoрмате.

Характеристики температуры и влажнoсти вoздуха измеряются на высoте 2 м в тени вдали oт зданий и деревьев.
Скoрoсть ветра измеряется на высoте 10 м (на урoвне рoста челoвека скoрoсть ветра ниже в 1.5-2 раза). Если метеoстанция нахoдится в гoрoде или в лесу, тo скoрoсть ветра занижена на 2-4 м/с пo сравнению с oткрытым местoм. Скoрoсть ветра над акватoриями крупных рек и oзёр, а также на вершинах хoлмoв на 2-5 м/с выше, чем в oбычных услoвиях.
Атмoсфернoе давление в разных тoчках местнoсти мoжет значительнo oтличаться oт давления на метеoстанции, в зависимoсти oт услoвий рельефа (при пoдъёме на 10 м давление пoнижается примернo на 1 мм рт.ст.).